Location: Guayaquil
(2.1667°S, 79.9000°W)
Time: 22:05:42
(UTC-05:00)

Envisat - Pass Details

Date: 12 August 2020
Orbit: 764 x 766 km, 98.1° (Epoch: 26 September)

Event Time Altitude Azimuth Distance (km) Brightness Sun altitude
Rises 05:56:19 0° 16° (NNE) 3,213 6.7 -7.4°
Reaches altitude 10° 05:58:36 10° 18° (NNE) 2,290 5.9 -6.8°
Maximum altitude 06:03:38 73° 102° (ESE) 799 3.3 -5.6°
Drops below altitude 10° 06:08:42 10° 186° (S) 2,301 5.3 -4.4°
Sets 06:11:00 0° 188° (S) 3,229 6.0 -3.8°
